Time,TemperatureF,DewpointF,PressureIn,WindDirection,WindDirectionDegrees,WindSpeedMPH,WindSpeedGustMPH,Humidity,HourlyPrecipIn,Conditions,Clouds,dailyrainin,SolarRadiationWatts/m^2,SoftwareType,DateUTC
2013-09-04 00:02:00,61.9,57.9,29.96,SSW,193,1.0,5.0,87,0.00,,,0.00,0.0,meteohub,2013-09-04 07:02:00,
2013-09-04 00:07:00,61.9,57.9,29.96,SSW,193,1.0,4.0,87,0.00,,,0.00,0.0,meteohub,2013-09-04 07:07:00,
2013-09-04 00:12:00,61.9,57.9,29.96,SSW,194,1.0,4.0,87,0.00,,,0.00,0.0,meteohub,2013-09-04 07:12:00,
2013-09-04 00:17:00,61.7,57.7,29.96,SSW,193,0.0,4.0,87,0.00,,,0.00,0.0,meteohub,2013-09-04 07:17:00,
2013-09-04 00:22:00,61.7,57.7,29.96,SSW,193,0.0,3.0,87,0.00,,,0.00,0.0,meteohub,2013-09-04 07:22:00,
2013-09-04 00:27:00,61.7,57.7,29.96,SSW,193,1.0,3.0,87,0.00,,,0.00,0.0,meteohub,2013-09-04 07:27:00,
2013-09-04 00:32:00,61.7,58.1,29.97,SSE,167,1.0,5.0,88,0.00,,,0.00,0.0,meteohub,2013-09-04 07:32:00,
2013-09-04 00:37:00,61.5,57.9,29.97,South,187,6.0,6.0,88,0.00,,,0.00,0.0,meteohub,2013-09-04 07:37:00,
2013-09-04 00:42:00,61.5,57.9,29.97,South,189,2.0,7.0,88,0.00,,,0.00,0.0,meteohub,2013-09-04 07:42:00,
2013-09-04 00:47:00,61.7,58.5,29.97,SSW,194,3.0,7.0,89,0.00,,,0.00,0.0,meteohub,2013-09-04 07:47:00,
2013-09-04 00:52:00,61.7,58.5,29.97,SSW,208,4.0,8.0,89,0.00,,,0.00,0.0,meteohub,2013-09-04 07:52:00,
2013-09-04 00:57:00,61.7,58.5,29.96,South,176,2.0,8.0,89,0.00,,,0.00,0.0,meteohub,2013-09-04 07:57:00,
2013-09-04 01:02:00,61.9,58.6,29.96,SSW,202,1.0,8.0,89,0.00,,,0.00,0.0,meteohub,2013-09-04 08:02:00,
2013-09-04 01:07:00,61.9,58.6,29.97,SSW,194,1.0,5.0,89,0.00,,,0.00,0.0,meteohub,2013-09-04 08:07:00,
2013-09-04 01:12:00,61.9,58.6,29.97,SSW,194,0.0,5.0,89,0.00,,,0.00,0.0,meteohub,2013-09-04 08:12:00,
2013-09-04 01:17:00,61.9,58.3,29.96,SSW,194,1.0,5.0,88,0.00,,,0.00,0.0,meteohub,2013-09-04 08:17:00,
2013-09-04 01:22:00,61.9,58.3,29.96,SSW,197,0.0,3.0,88,0.00,,,0.00,0.0,meteohub,2013-09-04 08:22:00,
2013-09-04 01:27:00,61.9,58.5,29.96,SSW,194,2.0,3.0,88,0.00,,,0.00,0.0,meteohub,2013-09-04 08:27:00,
2013-09-04 01:32:00,61.9,58.5,29.96,SSW,194,1.0,3.0,88,0.00,,,0.00,0.0,meteohub,2013-09-04 08:32:00,
2013-09-04 01:37:00,61.9,58.5,29.96,SSW,202,2.0,4.0,88,0.00,,,0.00,0.0,meteohub,2013-09-04 08:37:00,
2013-09-04 01:42:00,61.9,58.5,29.96,SSW,202,2.0,6.0,88,0.00,,,0.00,0.0,meteohub,2013-09-04 08:42:00,
2013-09-04 01:47:00,61.9,57.9,29.96,SSW,202,0.0,6.0,87,0.00,,,0.00,0.0,meteohub,2013-09-04 08:47:00,
2013-09-04 01:52:00,61.9,57.9,29.96,SSW,202,0.0,6.0,87,0.00,,,0.00,0.0,meteohub,2013-09-04 08:52:00,
2013-09-04 01:57:00,61.9,57.9,29.96,SSW,202,3.0,3.0,87,0.00,,,0.00,0.0,meteohub,2013-09-04 08:57:00,
2013-09-04 02:02:00,61.9,57.9,29.96,SW,214,5.0,5.0,87,0.00,,,0.00,0.0,meteohub,2013-09-04 09:02:00,
2013-09-04 02:07:00,61.9,57.9,29.96,SSW,198,2.0,8.0,87,0.00,,,0.00,0.0,meteohub,2013-09-04 09:07:00,
2013-09-04 02:12:00,61.9,57.9,29.96,SSE,168,5.0,8.0,87,0.00,,,0.00,0.0,meteohub,2013-09-04 09:12:00,
2013-09-04 02:17:00,61.9,57.9,29.96,SSE,168,7.0,8.0,87,0.00,,,0.00,0.0,meteohub,2013-09-04 09:17:00,
2013-09-04 02:22:00,61.7,58.1,29.96,South,188,1.0,8.0,88,0.00,,,0.00,0.0,meteohub,2013-09-04 09:22:00,
2013-09-04 02:27:00,61.7,57.7,29.96,SSW,203,1.0,8.0,87,0.00,,,0.00,0.0,meteohub,2013-09-04 09:27:00,
2013-09-04 02:32:00,61.7,57.7,29.96,SSW,201,5.0,8.0,87,0.00,,,0.00,0.0,meteohub,2013-09-04 09:32:00,
2013-09-04 02:37:00,61.7,57.7,29.96,South,174,3.0,9.0,87,0.00,,,0.00,0.0,meteohub,2013-09-04 09:37:00,
2013-09-04 02:42:00,61.7,57.7,29.97,SSW,198,1.0,9.0,87,0.00,,,0.00,0.0,meteohub,2013-09-04 09:42:00,
2013-09-04 02:47:00,61.5,57.6,29.97,SSW,198,2.0,9.0,87,0.00,,,0.00,0.0,meteohub,2013-09-04 09:47:00,
2013-09-04 02:52:00,61.5,57.6,29.97,South,184,2.0,7.0,87,0.00,,,0.00,0.0,meteohub,2013-09-04 09:52:00,
2013-09-04 02:57:00,61.5,57.6,29.97,SSE,168,3.0,8.0,87,0.00,,,0.00,0.0,meteohub,2013-09-04 09:57:00,
2013-09-04 03:02:00,61.5,57.6,29.97,South,188,4.0,8.0,87,0.00,,,0.00,0.0,meteohub,2013-09-04 10:02:00,
2013-09-04 03:07:00,61.5,57.9,29.97,SSW,204,3.0,8.0,88,0.00,,,0.00,0.0,meteohub,2013-09-04 10:07:00,
2013-09-04 03:12:00,61.5,57.9,29.97,South,189,4.0,6.0,88,0.00,,,0.00,0.0,meteohub,2013-09-04 10:12:00,
2013-09-04 03:17:00,61.5,57.9,29.97,SW,214,0.0,6.0,88,0.00,,,0.00,0.0,meteohub,2013-09-04 10:17:00,
2013-09-04 03:22:00,61.5,57.9,29.97,SW,214,3.0,6.0,88,0.00,,,0.00,0.0,meteohub,2013-09-04 10:22:00,
2013-09-04 03:27:00,61.5,57.9,29.97,SSW,211,2.0,6.0,88,0.00,,,0.00,0.0,meteohub,2013-09-04 10:27:00,
2013-09-04 03:32:00,61.5,57.9,29.97,SSW,205,5.0,6.0,88,0.00,,,0.00,0.0,meteohub,2013-09-04 10:32:00,
2013-09-04 03:37:00,61.7,58.1,29.97,SW,231,1.0,6.0,88,0.00,,,0.00,0.0,meteohub,2013-09-04 10:37:00,
2013-09-04 03:42:00,61.7,58.1,29.97,SW,223,6.0,6.0,88,0.00,,,0.00,0.0,meteohub,2013-09-04 10:42:00,
2013-09-04 03:47:00,61.9,58.3,29.97,SSW,208,6.0,7.0,88,0.00,,,0.00,0.0,meteohub,2013-09-04 10:47:00,
2013-09-04 03:52:00,61.9,58.3,29.97,SSW,196,2.0,7.0,88,0.00,,,0.00,0.0,meteohub,2013-09-04 10:52:00,
2013-09-04 03:57:00,61.9,58.5,29.97,South,189,0.0,7.0,88,0.00,,,0.00,0.0,meteohub,2013-09-04 10:57:00,
2013-09-04 04:02:00,61.9,58.5,29.97,SW,219,0.0,7.0,88,0.00,,,0.00,0.0,meteohub,2013-09-04 11:02:00,
2013-09-04 04:07:00,61.9,58.1,29.97,SSW,194,3.0,6.0,87,0.00,,,0.00,0.0,meteohub,2013-09-04 11:07:00,
2013-09-04 04:12:00,62.1,58.3,29.97,SW,223,0.0,5.0,87,0.00,,,0.00,0.0,meteohub,2013-09-04 11:12:00,
2013-09-04 04:17:00,62.1,58.3,29.97,SSW,202,3.0,5.0,87,0.00,,,0.00,0.0,meteohub,2013-09-04 11:17:00,
2013-09-04 04:22:00,62.1,58.3,29.97,WSW,246,3.0,6.0,87,0.00,,,0.00,0.0,meteohub,2013-09-04 11:22:00,
2013-09-04 04:27:00,62.1,58.3,29.97,WSW,250,0.0,6.0,87,0.00,,,0.00,0.0,meteohub,2013-09-04 11:27:00,
2013-09-04 04:32:00,62.1,58.3,29.97,SW,233,0.0,6.0,87,0.00,,,0.00,0.0,meteohub,2013-09-04 11:32:00,
2013-09-04 04:37:00,62.1,58.3,29.97,SW,222,3.0,5.0,87,0.00,,,0.00,0.0,meteohub,2013-09-04 11:37:00,
2013-09-04 04:42:00,62.1,58.3,29.97,South,184,1.0,5.0,87,0.00,,,0.00,0.0,meteohub,2013-09-04 11:42:00,
2013-09-04 04:47:00,62.1,58.1,29.97,SW,234,5.0,6.0,86,0.00,,,0.00,0.0,meteohub,2013-09-04 11:47:00,
2013-09-04 04:52:00,62.1,58.1,29.97,SW,229,2.0,8.0,86,0.00,,,0.00,0.0,meteohub,2013-09-04 11:52:00,
2013-09-04 04:57:00,62.1,58.1,29.96,SSW,193,6.0,9.0,86,0.00,,,0.00,0.0,meteohub,2013-09-04 11:57:00,
2013-09-04 05:02:00,61.9,57.9,29.96,South,186,4.0,9.0,86,0.00,,,0.00,0.0,meteohub,2013-09-04 12:02:00,
2013-09-04 05:07:00,61.9,57.7,29.97,South,188,1.0,8.0,86,0.00,,,0.00,0.0,meteohub,2013-09-04 12:07:00,
2013-09-04 05:12:00,61.9,57.7,29.97,SW,223,2.0,8.0,86,0.00,,,0.00,0.0,meteohub,2013-09-04 12:12:00,
2013-09-04 05:17:00,60.9,57.0,29.96,SW,222,0.0,7.0,86,0.00,,,0.00,0,weatherlink.com 1.10,2013-09-04 12:17:00,
2013-09-04 05:22:00,61.5,57.6,29.97,SSW,200,1.0,7.0,86,0.00,,,0.00,0.0,meteohub,2013-09-04 12:22:00,
2013-09-04 05:27:00,61.3,57.4,29.97,WSW,242,4.0,7.0,86,0.00,,,0.00,0.0,meteohub,2013-09-04 12:27:00,
2013-09-04 05:32:00,61.3,57.6,29.97,SW,232,2.0,6.0,87,0.00,,,0.00,0.0,meteohub,2013-09-04 12:32:00,
2013-09-04 05:37:00,61.2,57.4,29.97,SW,229,2.0,6.0,87,0.00,,,0.00,0.0,meteohub,2013-09-04 12:37:00,
2013-09-04 05:42:00,61.2,57.4,29.97,SW,215,0.0,7.0,87,0.00,,,0.00,0.0,meteohub,2013-09-04 12:42:00,
2013-09-04 05:47:00,61.0,57.2,29.97,SW,221,2.0,7.0,87,0.00,,,0.00,0.0,meteohub,2013-09-04 12:47:00,
2013-09-04 05:52:00,61.0,57.2,29.97,SW,215,4.0,7.0,87,0.00,,,0.00,0.0,meteohub,2013-09-04 12:52:00,
2013-09-04 05:57:00,61.0,57.6,29.97,South,186,5.0,6.0,88,0.00,,,0.00,0.0,meteohub,2013-09-04 12:57:00,
2013-09-04 06:02:00,60.8,57.4,29.97,SSW,204,1.0,7.0,88,0.00,,,0.00,0.0,meteohub,2013-09-04 13:02:00,
2013-09-04 06:07:00,60.8,57.4,29.97,SW,229,0.0,7.0,88,0.00,,,0.00,0.0,meteohub,2013-09-04 13:07:00,
2013-09-04 06:12:00,60.8,57.4,29.98,SW,224,6.0,6.0,88,0.00,,,0.00,0.0,meteohub,2013-09-04 13:12:00,
2013-09-04 06:17:00,60.8,57.4,29.98,South,179,0.0,7.0,88,0.00,,,0.00,0.0,meteohub,2013-09-04 13:17:00,
2013-09-04 06:22:00,60.6,57.2,29.98,SW,217,4.0,7.0,88,0.00,,,0.00,0.0,meteohub,2013-09-04 13:22:00,
2013-09-04 06:27:00,60.6,57.6,29.98,SW,223,0.0,7.0,89,0.00,,,0.00,0.0,meteohub,2013-09-04 13:27:00,
2013-09-04 06:32:00,60.6,57.6,29.98,SSW,202,4.0,7.0,89,0.00,,,0.00,0.0,meteohub,2013-09-04 13:32:00,
2013-09-04 06:37:00,60.6,57.6,29.98,SSW,208,6.0,7.0,89,0.00,,,0.00,0.0,meteohub,2013-09-04 13:37:00,
2013-09-04 06:42:00,60.6,57.6,29.99,SSW,192,3.0,7.0,89,0.00,,,0.00,0.0,meteohub,2013-09-04 13:42:00,
2013-09-04 06:47:00,60.6,57.6,29.99,South,181,1.0,7.0,89,0.00,,,0.00,5.0,meteohub,2013-09-04 13:47:00,
2013-09-04 06:52:00,60.4,57.4,29.99,SSW,209,0.0,7.0,89,0.00,,,0.00,11.0,meteohub,2013-09-04 13:52:00,
2013-09-04 06:57:00,60.4,57.4,29.99,SSW,209,2.0,6.0,89,0.00,,,0.00,14.0,meteohub,2013-09-04 13:57:00,
2013-09-04 07:02:00,60.4,57.4,29.99,SSW,209,1.0,5.0,89,0.00,,,0.00,19.0,meteohub,2013-09-04 14:02:00,
2013-09-04 07:07:00,60.4,57.4,29.99,SSW,209,0.0,4.0,89,0.00,,,0.00,19.0,meteohub,2013-09-04 14:07:00,
2013-09-04 07:12:00,60.6,57.6,29.99,SSW,212,3.0,6.0,89,0.00,,,0.00,14.0,meteohub,2013-09-04 14:12:00,
2013-09-04 07:17:00,60.6,57.6,29.99,SW,223,7.0,8.0,89,0.00,,,0.00,18.0,meteohub,2013-09-04 14:17:00,
2013-09-04 07:22:00,60.6,57.6,29.99,SSW,213,4.0,8.0,89,0.00,,,0.00,47.0,meteohub,2013-09-04 14:22:00,
2013-09-04 07:27:00,60.8,57.6,30.00,SSW,196,0.0,8.0,89,0.00,,,0.00,60.0,meteohub,2013-09-04 14:27:00,
2013-09-04 07:32:00,60.8,57.6,30.00,SSW,209,0.0,8.0,89,0.00,,,0.00,39.0,meteohub,2013-09-04 14:32:00,
2013-09-04 07:37:00,61.0,57.7,30.00,SSW,200,3.0,7.0,89,0.00,,,0.00,47.0,meteohub,2013-09-04 14:37:00,
2013-09-04 07:42:00,61.2,57.9,30.00,SW,219,2.0,6.0,89,0.00,,,0.00,132.0,meteohub,2013-09-04 14:42:00,
2013-09-04 07:47:00,61.5,57.9,30.00,SW,214,1.0,4.0,88,0.00,,,0.00,148.0,meteohub,2013-09-04 14:47:00,
2013-09-04 07:52:00,61.9,58.3,30.00,SSW,207,6.0,7.0,88,0.00,,,0.00,132.0,meteohub,2013-09-04 14:52:00,
2013-09-04 07:57:00,61.9,58.5,30.00,SSW,205,0.0,7.0,88,0.00,,,0.00,171.0,meteohub,2013-09-04 14:57:00,
2013-09-04 08:02:00,62.4,58.6,30.00,SW,215,3.0,7.0,87,0.00,,,0.00,197.0,meteohub,2013-09-04 15:02:00,
2013-09-04 08:07:00,63.0,58.8,30.00,SSW,202,3.0,7.0,86,0.00,,,0.00,165.0,meteohub,2013-09-04 15:07:00,
2013-09-04 08:12:00,63.5,59.2,30.00,SW,223,4.0,7.0,85,0.00,,,0.00,220.0,meteohub,2013-09-04 15:12:00,
2013-09-04 08:17:00,63.9,59.2,30.00,SW,221,0.0,7.0,84,0.00,,,0.00,239.0,meteohub,2013-09-04 15:17:00,
2013-09-04 08:22:00,64.2,59.2,30.00,SW,222,2.0,8.0,83,0.00,,,0.00,253.0,meteohub,2013-09-04 15:22:00,
2013-09-04 08:27:00,64.6,59.2,30.01,SW,227,4.0,8.0,82,0.00,,,0.00,271.0,meteohub,2013-09-04 15:27:00,
2013-09-04 08:32:00,65.1,59.4,30.01,SW,224,2.0,8.0,81,0.00,,,0.00,287.0,meteohub,2013-09-04 15:32:00,
2013-09-04 08:37:00,65.5,59.7,30.00,WSW,242,5.0,8.0,81,0.00,,,0.00,308.0,meteohub,2013-09-04 15:37:00,
2013-09-04 08:42:00,66.0,59.9,30.00,South,186,1.0,9.0,80,0.00,,,0.00,320.0,meteohub,2013-09-04 15:42:00,
2013-09-04 08:47:00,66.2,59.9,30.01,South,170,5.0,9.0,79,0.00,,,0.00,332.0,meteohub,2013-09-04 15:47:00,
2013-09-04 08:52:00,66.4,59.7,30.00,SW,217,6.0,8.0,78,0.00,,,0.00,355.0,meteohub,2013-09-04 15:52:00,
2013-09-04 08:57:00,66.7,59.7,30.00,South,186,1.0,8.0,77,0.00,,,0.00,366.0,meteohub,2013-09-04 15:57:00,
2013-09-04 09:02:00,67.1,59.7,30.01,South,190,5.0,8.0,76,0.00,,,0.00,380.0,meteohub,2013-09-04 16:02:00,
2013-09-04 09:07:00,67.3,59.5,30.01,SW,221,5.0,10.0,75,0.00,,,0.00,396.0,meteohub,2013-09-04 16:07:00,
2013-09-04 09:12:00,67.3,59.5,30.01,SSW,206,7.0,11.0,75,0.00,,,0.00,413.0,meteohub,2013-09-04 16:12:00,
2013-09-04 09:17:00,67.6,59.7,30.01,West,267,4.0,11.0,75,0.00,,,0.00,427.0,meteohub,2013-09-04 16:17:00,
2013-09-04 09:22:00,67.8,59.2,30.00,SSW,196,2.0,8.0,73,0.00,,,0.00,441.0,meteohub,2013-09-04 16:22:00,
2013-09-04 09:27:00,68.2,59.9,29.99,SW,215,1.0,8.0,74,0.00,,,0.00,459.0,meteohub,2013-09-04 16:27:00,
2013-09-04 09:32:00,68.5,59.5,29.98,SW,223,9.0,9.0,72,0.00,,,0.00,471.0,meteohub,2013-09-04 16:32:00,
2013-09-04 09:37:00,68.9,59.9,29.99,SW,233,0.0,11.0,72,0.00,,,0.00,482.0,meteohub,2013-09-04 16:37:00,
2013-09-04 09:42:00,69.3,59.9,30.00,SW,225,2.0,11.0,71,0.00,,,0.00,499.0,meteohub,2013-09-04 16:42:00,
2013-09-04 09:47:00,69.6,59.7,30.00,SW,221,5.0,11.0,70,0.00,,,0.00,512.0,meteohub,2013-09-04 16:47:00,
2013-09-04 09:52:00,69.8,59.2,30.00,South,182,6.0,8.0,68,0.00,,,0.00,526.0,meteohub,2013-09-04 16:52:00,
2013-09-04 09:57:00,69.8,59.5,30.00,SSW,204,2.0,8.0,69,0.00,,,0.00,543.0,meteohub,2013-09-04 16:57:00,
2013-09-04 10:02:00,70.2,59.9,30.00,SW,223,3.0,8.0,69,0.00,,,0.00,554.0,meteohub,2013-09-04 17:02:00,
2013-09-04 10:07:00,70.5,59.9,30.00,SSW,197,2.0,8.0,68,0.00,,,0.00,570.0,meteohub,2013-09-04 17:07:00,
2013-09-04 10:12:00,70.5,59.9,30.00,SSW,212,7.0,8.0,68,0.00,,,0.00,580.0,meteohub,2013-09-04 17:12:00,
2013-09-04 10:17:00,70.5,59.5,30.00,SSW,204,1.0,9.0,67,0.00,,,0.00,591.0,meteohub,2013-09-04 17:17:00,
2013-09-04 10:22:00,71.1,60.1,30.00,SW,215,2.0,9.0,67,0.00,,,0.00,606.0,meteohub,2013-09-04 17:22:00,
2013-09-04 10:27:00,71.6,59.7,30.00,South,181,6.0,9.0,65,0.00,,,0.00,615.0,meteohub,2013-09-04 17:27:00,
2013-09-04 10:32:00,72.1,59.4,30.00,SSW,192,5.0,9.0,63,0.00,,,0.00,617.0,meteohub,2013-09-04 17:32:00,
2013-09-04 10:37:00,72.1,59.4,30.00,South,188,8.0,9.0,63,0.00,,,0.00,638.0,meteohub,2013-09-04 17:37:00,
2013-09-04 10:42:00,72.1,59.0,30.00,SSW,205,7.0,10.0,62,0.00,,,0.00,654.0,meteohub,2013-09-04 17:42:00,
2013-09-04 10:47:00,72.3,59.5,30.00,SW,215,5.0,10.0,63,0.00,,,0.00,663.0,meteohub,2013-09-04 17:47:00,
2013-09-04 10:52:00,72.1,59.0,30.00,SSE,152,5.0,10.0,62,0.00,,,0.00,675.0,meteohub,2013-09-04 17:52:00,
2013-09-04 10:57:00,72.9,60.1,30.00,SE,124,4.0,9.0,63,0.00,,,0.00,684.0,meteohub,2013-09-04 17:57:00,
2013-09-04 11:02:00,73.4,60.1,29.99,SSW,212,7.0,9.0,62,0.00,,,0.00,694.0,meteohub,2013-09-04 18:02:00,
2013-09-04 11:07:00,73.8,59.5,29.99,South,188,3.0,9.0,60,0.00,,,0.00,705.0,meteohub,2013-09-04 18:07:00,
2013-09-04 11:12:00,73.9,59.7,29.99,SSW,208,3.0,9.0,60,0.00,,,0.00,715.0,meteohub,2013-09-04 18:12:00,
2013-09-04 11:17:00,74.3,59.5,29.99,SE,145,1.0,8.0,59,0.00,,,0.00,722.0,meteohub,2013-09-04 18:17:00,
2013-09-04 11:22:00,74.7,60.4,29.99,South,178,6.0,9.0,60,0.00,,,0.00,731.0,meteohub,2013-09-04 18:22:00,
2013-09-04 11:27:00,74.8,59.7,29.99,SW,223,9.0,9.0,58,0.00,,,0.00,742.0,meteohub,2013-09-04 18:27:00,
2013-09-04 11:32:00,74.8,59.5,29.99,SSW,197,3.0,9.0,58,0.00,,,0.00,745.0,meteohub,2013-09-04 18:32:00,
2013-09-04 11:37:00,74.8,60.1,29.99,South,189,4.0,10.0,59,0.00,,,0.00,758.0,meteohub,2013-09-04 18:37:00,
2013-09-04 11:42:00,75.0,59.9,29.99,West,265,5.0,10.0,58,0.00,,,0.00,761.0,meteohub,2013-09-04 18:42:00,
2013-09-04 11:47:00,74.8,59.7,29.99,SSW,210,6.0,11.0,58,0.00,,,0.00,770.0,meteohub,2013-09-04 18:47:00,
2013-09-04 11:52:00,75.4,59.7,29.99,South,189,5.0,11.0,57,0.00,,,0.00,773.0,meteohub,2013-09-04 18:52:00,
2013-09-04 11:57:00,75.6,59.5,29.99,South,177,1.0,11.0,56,0.00,,,0.00,782.0,meteohub,2013-09-04 18:57:00,
2013-09-04 12:02:00,75.7,59.7,29.99,South,190,1.0,10.0,56,0.00,,,0.00,788.0,meteohub,2013-09-04 19:02:00,
2013-09-04 12:07:00,75.7,60.1,29.98,SW,230,5.0,9.0,57,0.00,,,0.00,795.0,meteohub,2013-09-04 19:07:00,
2013-09-04 12:12:00,75.7,59.7,29.98,SW,228,7.0,10.0,56,0.00,,,0.00,796.0,meteohub,2013-09-04 19:12:00,
2013-09-04 12:17:00,75.9,59.4,29.98,WSW,238,2.0,10.0,55,0.00,,,0.00,802.0,meteohub,2013-09-04 19:17:00,
2013-09-04 12:22:00,76.5,60.3,29.98,SW,223,6.0,10.0,56,0.00,,,0.00,807.0,meteohub,2013-09-04 19:22:00,
2013-09-04 12:27:00,76.8,59.7,29.98,SSW,207,8.0,11.0,54,0.00,,,0.00,807.0,meteohub,2013-09-04 19:27:00,
2013-09-04 12:32:00,76.8,59.2,29.98,SW,236,2.0,11.0,53,0.00,,,0.00,814.0,meteohub,2013-09-04 19:32:00,
2013-09-04 12:37:00,76.8,58.6,29.98,South,189,6.0,12.0,52,0.00,,,0.00,814.0,meteohub,2013-09-04 19:37:00,
2013-09-04 12:42:00,76.8,59.2,29.98,SW,218,4.0,12.0,53,0.00,,,0.00,816.0,meteohub,2013-09-04 19:42:00,
2013-09-04 12:47:00,76.6,59.0,29.98,SSW,201,5.0,12.0,53,0.00,,,0.00,821.0,meteohub,2013-09-04 19:47:00,
2013-09-04 12:52:00,77.0,58.8,29.98,SSW,204,2.0,10.0,52,0.00,,,0.00,823.0,meteohub,2013-09-04 19:52:00,
2013-09-04 12:57:00,77.2,59.0,29.98,South,184,7.0,10.0,52,0.00,,,0.00,826.0,meteohub,2013-09-04 19:57:00,
2013-09-04 13:02:00,77.4,58.5,29.98,SW,224,9.0,11.0,51,0.00,,,0.00,823.0,meteohub,2013-09-04 20:02:00,
2013-09-04 13:07:00,77.4,58.5,29.98,SW,232,9.0,11.0,51,0.00,,,0.00,826.0,meteohub,2013-09-04 20:07:00,
2013-09-04 13:12:00,77.4,58.5,29.98,WSW,238,9.0,10.0,51,0.00,,,0.00,824.0,meteohub,2013-09-04 20:12:00,
2013-09-04 13:17:00,77.2,59.0,29.98,SW,232,3.0,11.0,52,0.00,,,0.00,823.0,meteohub,2013-09-04 20:17:00,
2013-09-04 13:22:00,77.4,59.0,29.98,SSW,196,9.0,11.0,52,0.00,,,0.00,824.0,meteohub,2013-09-04 20:22:00,
2013-09-04 13:27:00,77.0,58.8,29.97,SW,232,9.0,11.0,52,0.00,,,0.00,824.0,meteohub,2013-09-04 20:27:00,
2013-09-04 13:32:00,77.2,59.4,29.97,SW,220,8.0,12.0,53,0.00,,,0.00,826.0,meteohub,2013-09-04 20:32:00,
2013-09-04 13:37:00,78.1,59.2,29.97,SSW,206,3.0,12.0,51,0.00,,,0.00,823.0,meteohub,2013-09-04 20:37:00,
2013-09-04 13:42:00,77.9,58.5,29.97,SW,229,3.0,13.0,50,0.00,,,0.00,821.0,meteohub,2013-09-04 20:42:00,
2013-09-04 13:47:00,78.4,59.0,29.97,WNW,282,1.0,13.0,50,0.00,,,0.00,817.0,meteohub,2013-09-04 20:47:00,
2013-09-04 13:52:00,78.8,57.6,29.98,WNW,287,6.0,13.0,47,0.00,,,0.00,816.0,meteohub,2013-09-04 20:52:00,
2013-09-04 13:57:00,78.6,59.2,29.97,SW,227,4.0,11.0,50,0.00,,,0.00,812.0,meteohub,2013-09-04 20:57:00,
2013-09-04 14:02:00,78.1,58.6,29.97,SW,216,3.0,11.0,50,0.00,,,0.00,810.0,meteohub,2013-09-04 21:02:00,
2013-09-04 14:07:00,78.1,59.2,29.97,SW,216,3.0,11.0,51,0.00,,,0.00,805.0,meteohub,2013-09-04 21:07:00,
2013-09-04 14:12:00,78.3,57.2,29.97,WNW,290,7.0,11.0,47,0.00,,,0.00,800.0,meteohub,2013-09-04 21:12:00,
2013-09-04 14:17:00,78.4,57.9,29.97,WNW,302,6.0,12.0,48,0.00,,,0.00,796.0,meteohub,2013-09-04 21:17:00,
2013-09-04 14:22:00,78.3,57.7,29.96,WSW,246,4.0,12.0,48,0.00,,,0.00,791.0,meteohub,2013-09-04 21:22:00,
2013-09-04 14:27:00,78.3,58.8,29.96,WNW,288,8.0,15.0,50,0.00,,,0.00,782.0,meteohub,2013-09-04 21:27:00,
2013-09-04 14:32:00,78.1,57.6,29.96,WSW,237,5.0,15.0,48,0.00,,,0.00,779.0,meteohub,2013-09-04 21:32:00,
2013-09-04 14:37:00,77.7,58.3,29.96,SW,218,3.0,14.0,50,0.00,,,0.00,772.0,meteohub,2013-09-04 21:37:00,
2013-09-04 14:42:00,77.7,58.3,29.96,SW,236,5.0,14.0,50,0.00,,,0.00,765.0,meteohub,2013-09-04 21:42:00,
2013-09-04 14:47:00,77.9,58.5,29.96,SW,219,2.0,14.0,50,0.00,,,0.00,759.0,meteohub,2013-09-04 21:47:00,
2013-09-04 14:52:00,78.1,58.1,29.96,SW,215,3.0,12.0,49,0.00,,,0.00,751.0,meteohub,2013-09-04 21:52:00,
2013-09-04 14:57:00,78.1,58.1,29.96,SW,229,1.0,13.0,49,0.00,,,0.00,738.0,meteohub,2013-09-04 21:57:00,
2013-09-04 15:02:00,79.0,58.8,29.96,WSW,245,4.0,13.0,49,0.00,,,0.00,731.0,meteohub,2013-09-04 22:02:00,
2013-09-04 15:07:00,78.6,57.9,29.96,WSW,237,4.0,13.0,48,0.00,,,0.00,724.0,meteohub,2013-09-04 22:07:00,
2013-09-04 15:12:00,78.3,57.7,29.96,NNW,344,3.0,13.0,48,0.00,,,0.00,714.0,meteohub,2013-09-04 22:12:00,
2013-09-04 15:17:00,78.3,58.3,29.96,SW,219,6.0,13.0,49,0.00,,,0.00,707.0,meteohub,2013-09-04 22:17:00,
2013-09-04 15:22:00,78.3,58.3,29.95,West,265,4.0,13.0,49,0.00,,,0.00,693.0,meteohub,2013-09-04 22:22:00,
2013-09-04 15:27:00,78.8,58.8,29.95,WSW,244,0.0,13.0,49,0.00,,,0.00,684.0,meteohub,2013-09-04 22:27:00,
2013-09-04 15:32:00,78.4,58.5,29.95,West,269,6.0,13.0,49,0.00,,,0.00,671.0,meteohub,2013-09-04 22:32:00,
2013-09-04 15:37:00,78.6,58.6,29.95,SW,229,6.0,13.0,49,0.00,,,0.00,663.0,meteohub,2013-09-04 22:37:00,
2013-09-04 15:42:00,78.1,58.6,29.95,WSW,238,4.0,13.0,50,0.00,,,0.00,649.0,meteohub,2013-09-04 22:42:00,
2013-09-04 15:47:00,78.6,58.6,29.94,SSW,207,4.0,13.0,49,0.00,,,0.00,640.0,meteohub,2013-09-04 22:47:00,
2013-09-04 15:52:00,79.0,58.3,29.94,West,277,7.0,12.0,48,0.00,,,0.00,629.0,meteohub,2013-09-04 22:52:00,
2013-09-04 15:57:00,78.6,57.6,29.94,SW,230,2.0,15.0,47,0.00,,,0.00,619.0,meteohub,2013-09-04 22:57:00,
2013-09-04 16:02:00,78.3,57.7,29.94,SW,233,2.0,16.0,48,0.00,,,0.00,610.0,meteohub,2013-09-04 23:02:00,
2013-09-04 16:07:00,77.9,58.5,29.94,SSW,211,5.0,16.0,50,0.00,,,0.00,598.0,meteohub,2013-09-04 23:07:00,
2013-09-04 16:12:00,78.3,58.3,29.94,SW,218,5.0,12.0,49,0.00,,,0.00,580.0,meteohub,2013-09-04 23:12:00,
2013-09-04 16:17:00,78.3,58.3,29.94,WSW,239,7.0,10.0,49,0.00,,,0.00,564.0,meteohub,2013-09-04 23:17:00,
2013-09-04 16:22:00,78.3,58.8,29.94,SW,229,7.0,10.0,50,0.00,,,0.00,554.0,meteohub,2013-09-04 23:22:00,
2013-09-04 16:27:00,78.3,58.8,29.93,SW,229,5.0,10.0,50,0.00,,,0.00,540.0,meteohub,2013-09-04 23:27:00,
2013-09-04 16:32:00,78.4,57.9,29.93,WNW,296,3.0,10.0,48,0.00,,,0.00,526.0,meteohub,2013-09-04 23:32:00,
2013-09-04 16:37:00,78.3,57.7,29.93,SW,215,2.0,10.0,48,0.00,,,0.00,508.0,meteohub,2013-09-04 23:37:00,
2013-09-04 16:42:00,78.1,58.6,29.93,SW,217,10.0,10.0,50,0.00,,,0.00,494.0,meteohub,2013-09-04 23:42:00,
2013-09-04 16:47:00,77.0,58.8,29.93,SW,225,7.0,14.0,52,0.00,,,0.00,482.0,meteohub,2013-09-04 23:47:00,
2013-09-04 16:52:00,76.6,57.9,29.93,SSW,207,8.0,14.0,51,0.00,,,0.00,462.0,meteohub,2013-09-04 23:52:00,
2013-09-04 16:57:00,76.3,58.6,29.93,SSW,200,6.0,14.0,53,0.00,,,0.00,448.0,meteohub,2013-09-04 23:57:00,
2013-09-04 17:02:00,75.9,57.7,29.93,WNW,284,8.0,14.0,52,0.00,,,0.00,436.0,meteohub,2013-09-05 00:02:00,
2013-09-04 17:07:00,75.6,58.5,29.93,SW,223,5.0,14.0,54,0.00,,,0.00,420.0,meteohub,2013-09-05 00:07:00,
2013-09-04 17:12:00,75.4,58.3,29.93,SW,225,1.0,14.0,54,0.00,,,0.00,404.0,meteohub,2013-09-05 00:12:00,
2013-09-04 17:17:00,75.4,57.4,29.93,WNW,293,4.0,14.0,52,0.00,,,0.00,39.0,meteohub,2013-09-05 00:17:00,
2013-09-04 17:22:00,75.0,57.0,29.93,SW,226,5.0,13.0,52,0.00,,,0.00,39.0,meteohub,2013-09-05 00:22:00,
2013-09-04 17:27:00,74.8,57.4,29.92,West,260,10.0,13.0,53,0.00,,,0.00,39.0,meteohub,2013-09-05 00:27:00,
2013-09-04 17:32:00,74.8,57.6,29.92,SW,215,3.0,13.0,54,0.00,,,0.00,39.0,meteohub,2013-09-05 00:32:00,
2013-09-04 17:37:00,74.5,58.3,29.93,WSW,254,3.0,12.0,56,0.00,,,0.00,327.0,meteohub,2013-09-05 00:37:00,
2013-09-04 17:42:00,74.3,57.6,29.93,SW,232,10.0,12.0,55,0.00,,,0.00,311.0,meteohub,2013-09-05 00:42:00,
2013-09-04 17:47:00,73.8,59.0,29.93,SSW,210,2.0,12.0,59,0.00,,,0.00,294.0,meteohub,2013-09-05 00:47:00,
2013-09-04 17:52:00,73.0,58.8,29.93,SSW,211,5.0,11.0,60,0.00,,,0.00,276.0,meteohub,2013-09-05 00:52:00,
2013-09-04 17:57:00,72.7,59.0,29.93,SW,229,7.0,15.0,61,0.00,,,0.00,258.0,meteohub,2013-09-05 00:57:00,
2013-09-04 18:02:00,72.5,59.4,29.93,SSW,201,7.0,15.0,62,0.00,,,0.00,241.0,meteohub,2013-09-05 01:02:00,
2013-09-04 18:07:00,72.7,59.0,29.93,SW,217,3.0,15.0,61,0.00,,,0.00,227.0,meteohub,2013-09-05 01:07:00,
2013-09-04 18:12:00,72.7,59.5,29.93,SSW,213,4.0,12.0,62,0.00,,,0.00,204.0,meteohub,2013-09-05 01:12:00,
2013-09-04 18:17:00,72.3,59.2,29.93,WSW,246,2.0,12.0,62,0.00,,,0.00,30.0,meteohub,2013-09-05 01:17:00,
2013-09-04 18:22:00,72.1,59.4,29.93,SW,223,12.0,12.0,63,0.00,,,0.00,28.0,meteohub,2013-09-05 01:22:00,
2013-09-04 18:27:00,71.4,59.2,29.93,SW,227,7.0,12.0,64,0.00,,,0.00,26.0,meteohub,2013-09-05 01:27:00,
2013-09-04 18:32:00,71.1,59.2,29.93,West,279,7.0,12.0,65,0.00,,,0.00,26.0,meteohub,2013-09-05 01:32:00,
2013-09-04 18:37:00,70.5,59.2,29.93,West,275,5.0,12.0,66,0.00,,,0.00,25.0,meteohub,2013-09-05 01:37:00,
2013-09-04 18:42:00,70.5,59.4,29.93,WSW,241,0.0,11.0,67,0.00,,,0.00,25.0,meteohub,2013-09-05 01:42:00,
2013-09-04 18:47:00,70.3,59.7,29.93,West,259,6.0,10.0,68,0.00,,,0.00,23.0,meteohub,2013-09-05 01:47:00,
2013-09-04 18:52:00,70.0,59.7,29.93,SW,225,4.0,9.0,69,0.00,,,0.00,21.0,meteohub,2013-09-05 01:52:00,
2013-09-04 18:57:00,69.6,59.7,29.93,SSW,204,4.0,9.0,70,0.00,,,0.00,19.0,meteohub,2013-09-05 01:57:00,
2013-09-04 19:02:00,69.1,59.2,29.93,West,268,2.0,8.0,70,0.00,,,0.00,16.0,meteohub,2013-09-05 02:02:00,
2013-09-04 19:07:00,68.7,59.7,29.94,South,188,4.0,11.0,72,0.00,,,0.00,14.0,meteohub,2013-09-05 02:07:00,
2013-09-04 19:12:00,68.4,59.4,29.94,SW,225,5.0,11.0,72,0.00,,,0.00,12.0,meteohub,2013-09-05 02:12:00,
2013-09-04 19:17:00,68.2,59.5,29.94,SW,230,4.0,11.0,73,0.00,,,0.00,11.0,meteohub,2013-09-05 02:17:00,
2013-09-04 19:22:00,67.8,59.5,29.94,SW,219,5.0,9.0,74,0.00,,,0.00,9.0,meteohub,2013-09-05 02:22:00,
2013-09-04 19:27:00,67.6,59.7,29.94,SW,234,5.0,7.0,75,0.00,,,0.00,7.0,meteohub,2013-09-05 02:27:00,
2013-09-04 19:32:00,67.1,59.7,29.94,SSW,207,4.0,11.0,76,0.00,,,0.00,0.0,meteohub,2013-09-05 02:32:00,
2013-09-04 19:37:00,66.7,59.7,29.94,SSW,196,8.0,11.0,77,0.00,,,0.00,0.0,meteohub,2013-09-05 02:37:00,
2013-09-04 19:42:00,66.2,59.2,29.94,SSW,199,8.0,11.0,77,0.00,,,0.00,0.0,meteohub,2013-09-05 02:42:00,
2013-09-04 19:47:00,66.2,59.4,29.94,SW,227,3.0,11.0,78,0.00,,,0.00,0.0,meteohub,2013-09-05 02:47:00,
2013-09-04 19:52:00,66.0,59.5,29.94,SSW,202,1.0,10.0,79,0.00,,,0.00,0.0,meteohub,2013-09-05 02:52:00,
2013-09-04 19:57:00,65.7,59.2,29.94,West,264,3.0,10.0,79,0.00,,,0.00,0.0,meteohub,2013-09-05 02:57:00,
2013-09-04 20:02:00,65.5,59.4,29.95,SW,234,4.0,10.0,80,0.00,,,0.00,0.0,meteohub,2013-09-05 03:02:00,
2013-09-04 20:07:00,65.3,59.2,29.95,SSW,207,4.0,8.0,80,0.00,,,0.00,0.0,meteohub,2013-09-05 03:07:00,
2013-09-04 20:12:00,65.1,59.4,29.95,South,169,1.0,10.0,81,0.00,,,0.00,0.0,meteohub,2013-09-05 03:12:00,
2013-09-04 20:17:00,64.9,59.2,29.95,SW,227,5.0,10.0,81,0.00,,,0.00,0.0,meteohub,2013-09-05 03:17:00,
2013-09-04 20:22:00,64.8,59.4,29.95,SW,227,4.0,10.0,82,0.00,,,0.00,0.0,meteohub,2013-09-05 03:22:00,
2013-09-04 20:27:00,64.6,59.2,29.95,WSW,247,0.0,10.0,82,0.00,,,0.00,0.0,meteohub,2013-09-05 03:27:00,
2013-09-04 20:32:00,64.4,59.0,29.96,SW,217,0.0,9.0,82,0.00,,,0.00,0.0,meteohub,2013-09-05 03:32:00,
2013-09-04 20:37:00,64.4,59.4,29.96,SW,225,0.0,9.0,83,0.00,,,0.00,0.0,meteohub,2013-09-05 03:37:00,
2013-09-04 20:42:00,64.4,59.4,29.96,SW,220,3.0,5.0,83,0.00,,,0.00,0.0,meteohub,2013-09-05 03:42:00,
2013-09-04 20:47:00,64.4,59.4,29.96,SSW,203,0.0,7.0,83,0.00,,,0.00,0.0,meteohub,2013-09-05 03:47:00,
2013-09-04 20:52:00,64.4,59.7,29.96,SW,229,2.0,7.0,84,0.00,,,0.00,0.0,meteohub,2013-09-05 03:52:00,
2013-09-04 20:57:00,64.4,59.7,29.96,SSW,204,6.0,7.0,84,0.00,,,0.00,0.0,meteohub,2013-09-05 03:57:00,
2013-09-04 21:01:00,64.2,59.5,29.96,SW,234,3.0,10.0,84,0.00,,,0.00,0.0,meteohub,2013-09-05 04:01:00,
2013-09-04 21:03:00,64.2,59.5,29.96,WSW,238,1.0,10.0,84,0.00,,,0.00,0.0,meteohub,2013-09-05 04:03:00,
2013-09-04 21:08:00,64.2,59.2,29.97,SSW,210,2.0,10.0,83,0.00,,,0.00,0.0,meteohub,2013-09-05 04:08:00,
2013-09-04 21:13:00,64.2,59.2,29.97,SSE,162,6.0,10.0,83,0.00,,,0.00,0.0,meteohub,2013-09-05 04:13:00,
2013-09-04 21:18:00,64.0,59.4,29.97,SW,215,4.0,11.0,84,0.00,,,0.00,0.0,meteohub,2013-09-05 04:18:00,
2013-09-04 21:23:00,64.0,59.0,29.97,SW,216,6.0,11.0,83,0.00,,,0.00,0.0,meteohub,2013-09-05 04:23:00,
2013-09-04 21:28:00,63.9,58.8,29.97,South,171,7.0,11.0,83,0.00,,,0.00,0.0,meteohub,2013-09-05 04:28:00,
2013-09-04 21:34:00,63.9,58.8,29.97,South,188,6.0,11.0,83,0.00,,,0.00,0.0,meteohub,2013-09-05 04:34:00,
2013-09-04 21:39:00,63.9,58.8,29.97,SSW,200,6.0,7.0,83,0.00,,,0.00,0.0,meteohub,2013-09-05 04:39:00,
2013-09-04 21:44:00,63.7,58.6,29.97,South,180,9.0,11.0,83,0.00,,,0.00,0.0,meteohub,2013-09-05 04:44:00,
2013-09-04 21:49:00,63.7,58.6,29.97,SSW,192,6.0,13.0,83,0.00,,,0.00,0.0,meteohub,2013-09-05 04:49:00,
2013-09-04 21:54:00,63.5,58.5,29.97,South,172,5.0,13.0,83,0.00,,,0.00,0.0,meteohub,2013-09-05 04:54:00,
2013-09-04 21:59:00,63.5,58.5,29.97,SSW,200,8.0,12.0,83,0.00,,,0.00,0.0,meteohub,2013-09-05 04:59:00,
2013-09-04 22:04:00,63.5,58.5,29.96,SSE,152,8.0,14.0,83,0.00,,,0.00,0.0,meteohub,2013-09-05 05:04:00,
2013-09-04 22:10:00,63.3,58.6,29.97,SW,229,9.0,14.0,84,0.00,,,0.00,0.0,meteohub,2013-09-05 05:10:00,
2013-09-04 22:15:00,63.3,58.6,29.97,SSW,203,4.0,14.0,84,0.00,,,0.00,0.0,meteohub,2013-09-05 05:15:00,
2013-09-04 22:20:00,63.3,58.6,29.97,SW,215,5.0,14.0,84,0.00,,,0.00,0.0,meteohub,2013-09-05 05:20:00,
2013-09-04 22:25:00,63.3,58.6,29.97,WSW,238,6.0,8.0,84,0.00,,,0.00,0.0,meteohub,2013-09-05 05:25:00,
2013-09-04 22:30:00,63.3,58.6,29.97,SW,230,0.0,8.0,84,0.00,,,0.00,0.0,meteohub,2013-09-05 05:30:00,
2013-09-04 22:35:00,63.3,58.6,29.97,SSW,209,6.0,7.0,84,0.00,,,0.00,0.0,meteohub,2013-09-05 05:35:00,
2013-09-04 22:40:00,63.3,58.6,29.97,SW,221,3.0,10.0,84,0.00,,,0.00,0.0,meteohub,2013-09-05 05:40:00,
2013-09-04 22:46:00,63.1,58.5,29.97,SE,142,7.0,10.0,84,0.00,,,0.00,0.0,meteohub,2013-09-05 05:46:00,
2013-09-04 22:51:00,63.1,58.5,29.97,SW,236,6.0,10.0,84,0.00,,,0.00,0.0,meteohub,2013-09-05 05:51:00,
2013-09-04 22:56:00,63.0,58.3,29.97,South,190,2.0,15.0,84,0.00,,,0.00,0.0,meteohub,2013-09-05 05:56:00,
2013-09-04 23:01:00,63.0,58.3,29.97,West,281,0.0,15.0,84,0.00,,,0.00,0.0,meteohub,2013-09-05 06:01:00,
2013-09-04 23:06:00,63.0,58.3,29.97,SW,223,7.0,15.0,84,0.00,,,0.00,0.0,meteohub,2013-09-05 06:06:00,
2013-09-04 23:11:00,63.0,58.3,29.97,SW,228,8.0,9.0,84,0.00,,,0.00,0.0,meteohub,2013-09-05 06:11:00,
2013-09-04 23:16:00,63.0,58.3,29.97,SSW,203,2.0,10.0,84,0.00,,,0.00,0.0,meteohub,2013-09-05 06:16:00,
2013-09-04 23:21:00,63.0,58.3,29.97,SSW,195,2.0,11.0,84,0.00,,,0.00,0.0,meteohub,2013-09-05 06:21:00,
2013-09-04 23:27:00,62.8,58.1,29.97,SSW,196,3.0,11.0,84,0.00,,,0.00,0.0,meteohub,2013-09-05 06:27:00,
2013-09-04 23:32:00,62.8,58.1,29.97,SW,224,6.0,10.0,84,0.00,,,0.00,0.0,meteohub,2013-09-05 06:32:00,
2013-09-04 23:37:00,62.8,58.1,29.97,SSW,200,2.0,10.0,84,0.00,,,0.00,0.0,meteohub,2013-09-05 06:37:00,
2013-09-04 23:42:00,62.6,58.3,29.97,South,187,5.0,9.0,85,0.00,,,0.00,0.0,meteohub,2013-09-05 06:42:00,
2013-09-04 23:47:00,62.6,58.3,29.97,SSW,207,7.0,11.0,85,0.00,,,0.00,0.0,meteohub,2013-09-05 06:47:00,
2013-09-04 23:52:00,62.6,58.3,29.97,South,181,7.0,11.0,85,0.00,,,0.00,0.0,meteohub,2013-09-05 06:52:00,
2013-09-04 23:57:00,62.6,58.3,29.97,South,185,6.0,12.0,85,0.00,,,0.00,0.0,meteohub,2013-09-05 06:57:00,